This is the latest recevied weather packets stored in our database for station/object MM1PTT-13. If no packets are shown the sender has not sent any weather packets the latest 10 day(s).
| Time | Temp. | Humidity | Pressure | Rain* | Wind** | Luminosity | Snow |
|---|---|---|---|---|---|---|---|
| 1777887042 | 12.78° C | 57% | 986.1 hPa | 0 mm | - | 1270 W/m² | - |
| 1777886743 | 12.22° C | 59% | 986.1 hPa | 0 mm | - | 1263 W/m² | - |
| 1777886447 | 11.67° C | 59% | 986.1 hPa | 0 mm | - | 361 W/m² | - |
| 1777886144 | 11.67° C | 62% | 985.8 hPa | 0 mm | - | 930 W/m² | - |
| 1777885843 | 12.22° C | 61% | 986.1 hPa | 0 mm | - | 301 W/m² | - |
| 1777885543 | 12.22° C | 61% | 986.1 hPa | 0 mm | - | 896 W/m² | - |
| 1777885242 | 12.22° C | 60% | 986.1 hPa | 0 mm | - | 832 W/m² | - |
| 1777884942 | 12.22° C | 59% | 985.8 hPa | 0 mm | - | 598 W/m² | - |
| 1777884644 | 12.22° C | 61% | 986.1 hPa | 0 mm | - | 361 W/m² | - |
| 1777884342 | 11.67° C | 62% | 986.1 hPa | 0 mm | - | 351 W/m² | - |
| 1777884042 | 11.67° C | 62% | 986.1 hPa | 0 mm | - | 270 W/m² | - |
| 1777883743 | 12.22° C | 61% | 986.1 hPa | 0 mm | - | 241 W/m² | - |
| 1777883443 | 11.67° C | 63% | 985.8 hPa | 0 mm | - | 226 W/m² | - |
| 1777883142 | 11.67° C | 65% | 985.8 hPa | 0 mm | - | 213 W/m² | - |
| 1777882843 | 11.11° C | 66% | 985.8 hPa | 0 mm | - | 201 W/m² | - |
| 1777882543 | 11.11° C | 66% | 986.1 hPa | 0 mm | - | 192 W/m² | - |
| 1777882242 | 11.11° C | 65% | 985.8 hPa | 0 mm | - | 183 W/m² | - |
| 1777881943 | 11.67° C | 64% | 986.1 hPa | 0 mm | - | 176 W/m² | - |
| 1777881643 | 11.11° C | 64% | 985.8 hPa | 0 mm | - | 170 W/m² | - |
| 1777881342 | 11.11° C | 64% | 985.8 hPa | 0 mm | - | 163 W/m² | - |
| 1777881042 | 11.67° C | 64% | 985.8 hPa | 0 mm | - | 158 W/m² | - |
| 1777880743 | 11.67° C | 65% | 985.8 hPa | 0 mm | - | 152 W/m² | - |
| 1777880442 | 11.11° C | 65% | 985.8 hPa | 0 mm | - | 145 W/m² | - |
| 1777880143 | 11.11° C | 67% | 985.8 hPa | 0 mm | - | 138 W/m² | - |
| 1777879842 | 11.11° C | 68% | 985.8 hPa | 0 mm | - | 132 W/m² | - |
* Rain latest hour (hover to see other rain measurements)
** Current wind speed in m/s (hover to see current wind gust speed)